Hourly Data Report for February 06, 2015

All times are specified in Local Standard Time (LST). Add 1 hour to adjust for Daylight Saving Time where and when it is observed.

GERALDTON A
ONTARIO

49°46'58.090" N
86°55'50.050" W
348.40 m
6042716
71834
YGQ

Download Data

Hourly Data (February 2015)
Hourly Data Report for February 6, 2015
Temp Definition
°C
Dew Point Temp Definition
°C
Rel Hum Definition
%
Wind Dir Definition
10's deg

Wind Spd Definition
km/h
Visibility Definition
km
Stn Press Definition
kPa
Hmdx Definition


Wind Chill Definition


Weather Definition


TIME
00:00 -15.3 -18.7 75 28 11 24.1 96.71   -22 Mainly Clear
01:00 -16.1 -19.2 77 29 15 24.1 96.77   -24 Mainly Clear
02:00 -16.9 -19.6 80 27 11 24.1 96.83   -24 Clear
03:00 -17.7 -20.6 78 30 15 24.1 96.91   -26 Clear
04:00 -18.6 -21.5 78 29 11 24.1 96.98   -26 Mainly Clear
05:00 -19.5 -21.9 81 29 9 19.3 97.02   -26 Snow
06:00 -20.2 -22.8 80 30 11 24.1 97.14   -28 Snow
07:00 -21.1 -23.6 80 29 11 24.1 97.22   -29 Ice Crystals
08:00 -21.7 -24.4 79 30 9 24.1 97.26   -29 Snow
09:00 -21.7 -24.5 78 31 7 24.1 97.34   -28 Mainly Clear
10:00 -21.7 -24.5 78 31 7 24.1 97.40   -28 Mostly Cloudy
11:00 -21.0 -26.4 62 31 20 24.1 97.42   -32 Mainly Clear
12:00 -19.9 -25.8 59 31 20 24.1 97.47   -30 Mainly Clear
13:00 -19.0 -25.4 57 31 20 24.1 97.38   -29 Mostly Cloudy
14:00 -18.0 -25.0 54 31 15 24.1 97.48   -27 Mostly Cloudy
15:00 -17.9 -24.0 59 30 13 24.1 97.49   -26 Mainly Clear
16:00 -17.8 -23.6 60 30 15 24.1 97.49   -26 Mostly Cloudy
17:00 -17.9 -23.5 62 29 13 24.1 97.51   -26 Mainly Clear
18:00 -19.2 -23.8 67 29 6 24.1 97.53   -24 Mainly Clear
19:00 -20.7 -24.1 74 27 6 24.1 97.50   -26 Mainly Clear
20:00 -22.5 -25.2 79 26 6 24.1 97.52   -28 Mainly Clear
21:00 -22.4 -25.4 77 29 4 24.1 97.57   -26 Mostly Cloudy
22:00 -21.7 -24.8 76 25 4 24.1 97.58   -25 Cloudy
23:00 -20.4 -24.2 72 35 11 24.1 97.58   -28 Cloudy

Notes on Data Quality.

Legend

  • E = Estimated
  • M = Missing
  • NA = Not Available
  • ‡ = Partner data that is not subject to review by the National Climate Archives
Date modified: